Preview of NWS' New Version of Forecast
This preview is not operational and should not be used for support decisions.

Regional Weather Roundup (RWR)

Issued by National Weather Service (NWS)

                            
000
ASUS45 KABQ 171301
RWRNM 
NEW MEXICO REGIONAL WEATHER ROUNDUP
NATIONAL WEATHER SERVICE ALBUQUERQUE NM
700 AM MDT WED JUL 17 2019

NOTE: "FAIR" MEANS FEW OR NO CLOUDS BELOW 12,000 FEET AGL WITH NO
       SIGNIFICANT WEATHER OR OBSTRUCTIONS TO VISION.

      THIS PRODUCT IS RELEASED AS TWO VERSIONS.  ONE VERSION NEAR
      THE TOP OF THE HOUR CONTAINING PRELIMINARY DATA FROM ALBUQUERQUE
      AND OTHER STATIONS.  A FINAL VERSION WITH ADDITIONAL DATA IS 
      ISSUED ABOUT 10 MINUTES AFTER THE HOUR.
 
NMZ501-503-504-510>518-171400-
NORTHWEST PLATEAU/NORTHCENTRAL MOUNTAINS
  
CITY           SKY/WX    TMP DP  RH WIND       PRES   REMARKS
FARMINGTON     FAIR      68  51  54 E6        30.16R                  
LOS ALAMOS       N/A     67  48  51 CALM      30.30R                  
SANTA FE       FAIR      62  56  80 NE6       30.24R                  
TAOS           FAIR      55  50  83 NW3       30.31R                  
ANGEL FIRE       N/A     49  48  97 CALM      30.37S                  

$$
NMZ402-403-502-505>509-171400-
WESTCENTRAL MOUNTAINS/SOUTHWEST MOUNTAINS
  
CITY           SKY/WX    TMP DP  RH WIND       PRES   REMARKS
GALLUP         FAIR      57  46  66 CALM      30.26R                  
GRANTS         FAIR      57  52  84 S6        30.29R                  
SILVER CITY    FAIR      65  55  69 N8        30.21R                  

$$
NMZ407-409-411-412-171400-
SOUTHERN DESERTS
  
CITY           SKY/WX    TMP DP  RH WIND       PRES   REMARKS
DEMING         MOCLDY    75  55  49 SW3       30.13R                  
LAS CRUCES     CLOUDY    78  50  37 W9        30.12R                  
ALAMOGORDO     FAIR      72  55  56 S6        30.09R                  
T OR C         MOCLDY    77  54  44 NW12      30.12R                  

$$
NMZ519>523-171400-
CENTRAL VALLEYS/CENTRAL HIGHLANDS
  
CITY           SKY/WX    TMP DP  RH WIND       PRES   REMARKS
ALBUQUERQUE    FAIR      71  58  63 CALM      30.17R                  
DOUBLE EAGLE   MOCLDY    61  55  82 VRB3      30.21R                  
MORIARTY ARPT  FAIR      62  62 100 CALM      30.24R                  
CLINES CORNERS CLOUDY    62  54  74 NW13      30.27                   
BELEN          FAIR      71  57  61 NE5       30.17R                  
SOCORRO        NOT AVBL                                               

$$
NMZ524>526-539-540-171400-
SOUTHCENTRAL MOUNTAINS
  
CITY           SKY/WX    TMP DP  RH WIND       PRES   REMARKS
RUIDOSO        FAIR      63  52  67 W5        30.29R                  

$$
NMZ527>531-171400-
NORTHEAST HIGHLANDS/NORTHEAST PLAINS
  
CITY           SKY/WX    TMP DP  RH WIND       PRES   REMARKS
LAS VEGAS      FAIR      60  54  80 S7        30.22R                  
RATON          FAIR      62  49  62 NE6       30.15R                  
CLAYTON        FAIR      68  56  65 SW7       30.05S                  

$$
NMZ532>537-171400-
EASTCENTRAL PLAINS
  
CITY           SKY/WX    TMP DP  RH WIND       PRES   REMARKS
SANTA ROSA     FAIR      73  59  62 SW6       30.10R                  
TUCUMCARI      FAIR      72  60  66 S6        30.02R                  
CANNON AFB     FAIR      72  61  68 SW5       30.10R                  
CLOVIS AIRPORT FAIR      73  62  68 SW7       30.10R                  

$$
NMZ028-029-538-171400-
SOUTHEAST PLAINS
  
CITY           SKY/WX    TMP DP  RH WIND       PRES   REMARKS
ROSWELL        FAIR      78  60  53 S3        30.04R                  
ARTESIA        FAIR      77  63  61 S9        30.05R                  
CARLSBAD       FAIR      77  61  57 MISG      30.01R                  
HOBBS          SUNNY     75  63  64 SE12      30.07R                  


$$